Time,TemperatureF,DewpointF,PressureIn,WindDirection,WindDirectionDegrees,WindSpeedMPH,WindSpeedGustMPH,Humidity,HourlyPrecipIn,Conditions,Clouds,dailyrainin,SoftwareType,DateUTC
2013-03-14 00:02:00,52.9,52.3,30.09,West,270,4.0,4.0,98,0.00,,,0.00,meteohub,2013-03-14 07:02:00,
2013-03-14 00:07:00,52.9,52.5,30.08,West,270,4.0,4.0,99,0.00,,,0.00,meteohub,2013-03-14 07:07:00,
2013-03-14 00:12:00,52.7,52.3,30.08,West,270,2.0,4.0,99,0.00,,,0.00,meteohub,2013-03-14 07:12:00,
2013-03-14 00:17:00,52.7,52.3,30.08,NW,315,2.0,4.0,99,0.00,,,0.00,meteohub,2013-03-14 07:17:00,
2013-03-14 00:22:00,52.7,52.3,30.08,West,270,2.0,4.0,99,0.00,,,0.00,meteohub,2013-03-14 07:22:00,
2013-03-14 00:27:00,52.7,52.3,30.09,NW,315,1.0,3.0,99,0.00,,,0.00,meteohub,2013-03-14 07:27:00,
2013-03-14 00:32:00,52.5,52.2,30.09,ENE,68,5.0,5.0,99,0.00,,,0.00,meteohub,2013-03-14 07:32:00,
2013-03-14 00:37:00,52.3,52.0,30.09,East,90,5.0,6.0,99,0.00,,,0.00,meteohub,2013-03-14 07:37:00,
2013-03-14 00:42:00,52.3,52.0,30.09,SE,135,2.0,8.0,99,0.00,,,0.00,meteohub,2013-03-14 07:42:00,
2013-03-14 00:47:00,52.2,51.8,30.09,West,270,2.0,8.0,99,0.00,,,0.00,meteohub,2013-03-14 07:47:00,
2013-03-14 00:52:00,52.2,51.8,30.09,West,270,4.0,8.0,99,0.00,,,0.00,meteohub,2013-03-14 07:52:00,
2013-03-14 00:57:00,51.8,51.4,30.09,West,270,2.0,4.0,99,0.00,,,0.00,meteohub,2013-03-14 07:57:00,
2013-03-14 01:03:00,51.8,51.4,30.09,West,270,4.0,4.0,99,0.00,,,0.00,meteohub,2013-03-14 08:03:00,
2013-03-14 01:08:00,52.0,51.6,30.09,West,270,4.0,4.0,99,0.00,,,0.00,meteohub,2013-03-14 08:08:00,
2013-03-14 01:13:00,52.2,51.8,30.09,West,270,2.0,4.0,99,0.00,,,0.00,meteohub,2013-03-14 08:13:00,
2013-03-14 01:18:00,52.5,51.6,30.09,West,270,4.0,4.0,97,0.00,,,0.00,meteohub,2013-03-14 08:18:00,
2013-03-14 01:23:00,52.5,51.4,30.09,West,270,2.0,5.0,96,0.00,,,0.00,meteohub,2013-03-14 08:23:00,
2013-03-14 01:28:00,52.3,50.9,30.09,SW,225,3.0,5.0,95,0.00,,,0.00,meteohub,2013-03-14 08:28:00,
2013-03-14 01:33:00,52.3,50.9,30.09,NW,315,3.0,5.0,95,0.00,,,0.00,meteohub,2013-03-14 08:33:00,
2013-03-14 01:38:00,52.5,50.9,30.09,West,270,2.0,3.0,94,0.00,,,0.00,meteohub,2013-03-14 08:38:00,
2013-03-14 01:43:00,52.5,50.9,30.09,West,270,3.0,4.0,94,0.00,,,0.00,meteohub,2013-03-14 08:43:00,
2013-03-14 01:48:00,52.5,50.5,30.09,SW,225,3.0,4.0,93,0.00,,,0.00,meteohub,2013-03-14 08:48:00,
2013-03-14 01:53:00,52.3,50.4,30.09,SW,225,3.0,4.0,93,0.00,,,0.00,meteohub,2013-03-14 08:53:00,
2013-03-14 01:58:00,52.3,50.4,30.09,SW,225,3.0,4.0,93,0.00,,,0.00,meteohub,2013-03-14 08:58:00,
2013-03-14 02:03:00,52.2,50.5,30.08,SW,225,4.0,4.0,94,0.00,,,0.00,meteohub,2013-03-14 09:03:00,
2013-03-14 02:08:00,52.3,50.7,30.09,West,270,3.0,4.0,94,0.00,,,0.00,meteohub,2013-03-14 09:08:00,
2013-03-14 02:13:00,52.3,50.7,30.09,NW,315,4.0,4.0,94,0.00,,,0.00,meteohub,2013-03-14 09:13:00,
2013-03-14 02:18:00,52.7,51.1,30.08,West,270,6.0,6.0,94,0.00,,,0.00,meteohub,2013-03-14 09:18:00,
2013-03-14 02:23:00,52.9,50.9,30.08,NW,315,4.0,8.0,93,0.00,,,0.00,meteohub,2013-03-14 09:23:00,
2013-03-14 02:28:00,52.9,50.9,30.08,West,270,4.0,8.0,93,0.00,,,0.00,meteohub,2013-03-14 09:28:00,
2013-03-14 02:33:00,52.5,50.9,30.09,West,270,4.0,8.0,94,0.00,,,0.00,meteohub,2013-03-14 09:33:00,
2013-03-14 02:38:00,52.3,51.3,30.09,West,270,2.0,5.0,96,0.00,,,0.00,meteohub,2013-03-14 09:38:00,
2013-03-14 02:43:00,52.3,51.3,30.08,NW,315,5.0,5.0,96,0.00,,,0.00,meteohub,2013-03-14 09:43:00,
2013-03-14 02:48:00,52.3,51.3,30.08,West,270,7.0,7.0,96,0.00,,,0.00,meteohub,2013-03-14 09:48:00,
2013-03-14 02:53:00,52.3,51.3,30.08,West,270,4.0,7.0,96,0.00,,,0.00,meteohub,2013-03-14 09:53:00,
2013-03-14 02:58:00,52.3,51.3,30.08,West,270,5.0,7.0,96,0.00,,,0.00,meteohub,2013-03-14 09:58:00,
2013-03-14 03:03:00,52.3,51.3,30.07,NW,315,4.0,7.0,96,0.00,,,0.00,meteohub,2013-03-14 10:03:00,
2013-03-14 03:08:00,52.2,51.1,30.07,West,270,3.0,6.0,96,0.00,,,0.00,meteohub,2013-03-14 10:08:00,
2013-03-14 03:13:00,52.3,51.3,30.08,NW,315,4.0,6.0,96,0.00,,,0.00,meteohub,2013-03-14 10:13:00,
2013-03-14 03:18:00,52.0,50.5,30.08,North,0,3.0,5.0,95,0.00,,,0.00,meteohub,2013-03-14 10:18:00,
2013-03-14 03:23:00,51.4,50.5,30.08,North,0,2.0,5.0,97,0.00,,,0.00,meteohub,2013-03-14 10:23:00,
2013-03-14 03:28:00,51.1,50.5,30.07,NE,45,3.0,5.0,98,0.00,,,0.00,meteohub,2013-03-14 10:28:00,
2013-03-14 03:33:00,50.7,50.2,30.07,NE,45,4.0,4.0,98,0.00,,,0.00,meteohub,2013-03-14 10:33:00,
2013-03-14 03:38:00,50.7,50.4,30.07,NNE,23,3.0,4.0,99,0.00,,,0.00,meteohub,2013-03-14 10:38:00,
2013-03-14 03:43:00,50.7,50.4,30.07,NW,315,3.0,4.0,99,0.00,,,0.00,meteohub,2013-03-14 10:43:00,
2013-03-14 03:48:00,50.5,50.2,30.07,North,0,2.0,4.0,99,0.00,,,0.00,meteohub,2013-03-14 10:48:00,
2013-03-14 03:53:00,50.7,50.4,30.07,NW,315,4.0,4.0,99,0.00,,,0.00,meteohub,2013-03-14 10:53:00,
2013-03-14 03:58:00,50.5,50.2,30.06,NW,315,4.0,4.0,99,0.00,,,0.00,meteohub,2013-03-14 10:58:00,
2013-03-14 04:03:00,50.4,50.0,30.06,West,270,4.0,5.0,99,0.00,,,0.00,meteohub,2013-03-14 11:03:00,
2013-03-14 04:08:00,50.2,49.8,30.06,West,270,4.0,5.0,99,0.00,,,0.00,meteohub,2013-03-14 11:08:00,
2013-03-14 04:13:00,50.2,49.8,30.06,NW,315,4.0,5.0,99,0.00,,,0.00,meteohub,2013-03-14 11:13:00,
2013-03-14 04:18:00,50.4,50.0,30.06,NW,315,4.0,5.0,99,0.00,,,0.00,meteohub,2013-03-14 11:18:00,
2013-03-14 04:23:00,50.5,50.2,30.06,NW,315,4.0,5.0,99,0.00,,,0.00,meteohub,2013-03-14 11:23:00,
2013-03-14 04:28:00,50.5,50.2,30.05,West,270,5.0,5.0,99,0.00,,,0.00,meteohub,2013-03-14 11:28:00,
2013-03-14 04:33:00,50.4,50.0,30.05,NW,315,7.0,7.0,99,0.00,,,0.00,meteohub,2013-03-14 11:33:00,
2013-03-14 04:38:00,50.5,50.2,30.05,NW,315,8.0,8.0,99,0.00,,,0.00,meteohub,2013-03-14 11:38:00,
2013-03-14 04:43:00,50.7,50.4,30.05,NW,315,7.0,8.0,99,0.00,,,0.00,meteohub,2013-03-14 11:43:00,
2013-03-14 04:48:00,50.5,50.2,30.05,West,270,5.0,8.0,99,0.00,,,0.00,meteohub,2013-03-14 11:48:00,
2013-03-14 04:53:00,50.5,50.2,30.05,West,270,4.0,8.0,99,0.00,,,0.00,meteohub,2013-03-14 11:53:00,
2013-03-14 04:58:00,50.5,50.2,30.05,NW,315,4.0,8.0,99,0.00,,,0.00,meteohub,2013-03-14 11:58:00,
2013-03-14 05:03:00,50.7,50.4,30.05,NW,315,4.0,6.0,99,0.00,,,0.00,meteohub,2013-03-14 12:03:00,
2013-03-14 05:08:00,50.7,50.4,30.06,NW,315,4.0,4.0,99,0.00,,,0.00,meteohub,2013-03-14 12:08:00,
2013-03-14 05:13:00,50.5,50.0,30.05,NW,315,3.0,4.0,98,0.00,,,0.00,meteohub,2013-03-14 12:13:00,
2013-03-14 05:18:00,50.2,49.6,30.05,South,180,2.0,4.0,98,0.00,,,0.00,meteohub,2013-03-14 12:18:00,
2013-03-14 05:23:00,49.8,49.5,30.05,South,180,0.0,4.0,99,0.00,,,0.00,meteohub,2013-03-14 12:23:00,
2013-03-14 05:28:00,49.5,48.9,30.05,NE,45,0.0,4.0,98,0.00,,,0.00,meteohub,2013-03-14 12:28:00,
2013-03-14 05:33:00,49.3,49.1,30.05,West,270,5.0,5.0,99,0.00,,,0.00,meteohub,2013-03-14 12:33:00,
2013-03-14 05:38:00,49.8,49.5,30.05,West,270,4.0,4.0,99,0.00,,,0.00,meteohub,2013-03-14 12:38:00,
2013-03-14 05:44:00,50.0,49.6,30.05,North,0,4.0,7.0,99,0.00,,,0.00,meteohub,2013-03-14 12:44:00,
2013-03-14 05:49:00,49.8,49.3,30.05,North,0,2.0,7.0,98,0.00,,,0.00,meteohub,2013-03-14 12:49:00,
2013-03-14 05:54:00,49.8,49.3,30.05,NW,315,3.0,7.0,98,0.00,,,0.00,meteohub,2013-03-14 12:54:00,
2013-03-14 05:59:00,49.6,49.1,30.05,NW,315,4.0,4.0,98,0.00,,,0.00,meteohub,2013-03-14 12:59:00,
2013-03-14 06:04:00,49.6,49.1,30.05,NW,315,4.0,4.0,98,0.00,,,0.00,meteohub,2013-03-14 13:04:00,
2013-03-14 06:09:00,49.6,49.1,30.05,North,0,3.0,4.0,98,0.00,,,0.00,meteohub,2013-03-14 13:09:00,
2013-03-14 06:14:00,48.4,47.8,30.06,NE,45,5.0,5.0,98,0.00,,,0.00,meteohub,2013-03-14 13:14:00,
2013-03-14 06:19:00,48.0,47.8,30.05,North,0,4.0,6.0,99,0.00,,,0.00,meteohub,2013-03-14 13:19:00,
2013-03-14 06:24:00,47.5,47.3,30.05,NE,45,2.0,6.0,99,0.00,,,0.00,meteohub,2013-03-14 13:24:00,
2013-03-14 06:29:00,47.7,47.5,30.05,NW,315,2.0,6.0,99,0.00,,,0.00,meteohub,2013-03-14 13:29:00,
2013-03-14 06:34:00,47.8,47.7,30.05,North,0,2.0,4.0,99,0.00,,,0.00,meteohub,2013-03-14 13:34:00,
2013-03-14 06:39:00,47.7,47.5,30.05,NNW,338,3.0,3.0,99,0.00,,,0.00,meteohub,2013-03-14 13:39:00,
2013-03-14 06:44:00,47.8,47.7,30.06,NW,315,3.0,3.0,99,0.00,,,0.00,meteohub,2013-03-14 13:44:00,
2013-03-14 06:49:00,48.2,48.0,30.06,NW,315,1.0,3.0,99,0.00,,,0.00,meteohub,2013-03-14 13:49:00,
2013-03-14 06:54:00,47.8,47.7,30.06,NW,315,1.0,4.0,99,0.00,,,0.00,meteohub,2013-03-14 13:54:00,
2013-03-14 06:59:00,47.1,46.9,30.06,NE,45,5.0,5.0,99,0.00,,,0.00,meteohub,2013-03-14 13:59:00,
2013-03-14 07:04:00,46.6,46.4,30.06,NE,45,2.0,4.0,99,0.00,,,0.00,meteohub,2013-03-14 14:04:00,
2013-03-14 07:09:00,46.4,46.2,30.06,North,0,3.0,5.0,99,0.00,,,0.00,meteohub,2013-03-14 14:09:00,
2013-03-14 07:14:00,46.9,46.8,30.06,West,270,3.0,5.0,99,0.00,,,0.00,meteohub,2013-03-14 14:14:00,
2013-03-14 07:19:00,46.9,46.8,30.06,West,270,4.0,4.0,99,0.00,,,0.00,meteohub,2013-03-14 14:19:00,
2013-03-14 07:24:00,46.9,46.8,30.06,West,270,4.0,4.0,99,0.00,,,0.00,meteohub,2013-03-14 14:24:00,
2013-03-14 07:29:00,46.9,46.8,30.06,West,270,3.0,4.0,99,0.00,,,0.00,meteohub,2013-03-14 14:29:00,
2013-03-14 07:34:00,47.3,47.1,30.06,West,270,3.0,4.0,99,0.00,,,0.00,meteohub,2013-03-14 14:34:00,
2013-03-14 07:39:00,47.3,47.1,30.07,East,90,4.0,4.0,99,0.00,,,0.00,meteohub,2013-03-14 14:39:00,
2013-03-14 07:44:00,46.9,46.8,30.08,NE,45,2.0,4.0,99,0.00,,,0.00,meteohub,2013-03-14 14:44:00,
2013-03-14 07:49:00,46.9,46.8,30.07,West,270,3.0,5.0,99,0.00,,,0.00,meteohub,2013-03-14 14:49:00,
2013-03-14 07:54:00,47.1,46.9,30.07,West,270,4.0,5.0,99,0.00,,,0.00,meteohub,2013-03-14 14:54:00,
2013-03-14 07:59:00,47.1,46.9,30.07,NW,315,4.0,5.0,99,0.00,,,0.00,meteohub,2013-03-14 14:59:00,
2013-03-14 08:04:00,47.5,47.3,30.08,West,270,4.0,5.0,99,0.00,,,0.00,meteohub,2013-03-14 15:04:00,
2013-03-14 08:09:00,48.4,48.2,30.07,ENE,68,6.0,6.0,99,0.00,,,0.00,meteohub,2013-03-14 15:09:00,
2013-03-14 08:14:00,48.7,48.6,30.08,North,0,6.0,8.0,99,0.00,,,0.00,meteohub,2013-03-14 15:14:00,
2013-03-14 08:19:00,49.6,49.5,30.08,NW,315,8.0,8.0,99,0.00,,,0.00,meteohub,2013-03-14 15:19:00,
2013-03-14 08:24:00,50.0,49.6,30.07,NW,315,7.0,8.0,99,0.00,,,0.00,meteohub,2013-03-14 15:24:00,
2013-03-14 08:29:00,50.4,49.8,30.07,NW,315,6.0,8.0,98,0.00,,,0.00,meteohub,2013-03-14 15:29:00,
2013-03-14 08:34:00,50.4,49.5,30.08,NW,315,4.0,8.0,97,0.00,,,0.00,meteohub,2013-03-14 15:34:00,
2013-03-14 08:39:00,50.2,49.3,30.08,NW,315,6.0,8.0,97,0.00,,,0.00,meteohub,2013-03-14 15:39:00,
2013-03-14 08:44:00,50.2,49.3,30.08,NW,315,3.0,7.0,97,0.00,,,0.00,meteohub,2013-03-14 15:44:00,
2013-03-14 08:49:00,50.0,48.9,30.09,NNE,23,4.0,7.0,96,0.00,,,0.00,meteohub,2013-03-14 15:49:00,
2013-03-14 08:54:00,49.8,48.9,30.09,NW,315,3.0,7.0,97,0.00,,,0.00,meteohub,2013-03-14 15:54:00,
2013-03-14 08:59:00,49.8,48.9,30.10,NW,315,3.0,7.0,97,0.00,,,0.00,meteohub,2013-03-14 15:59:00,
2013-03-14 09:04:00,50.0,48.9,30.10,West,270,5.0,7.0,96,0.00,,,0.00,meteohub,2013-03-14 16:04:00,
2013-03-14 09:09:00,50.2,49.1,30.10,NW,315,4.0,6.0,96,0.00,,,0.00,meteohub,2013-03-14 16:09:00,
2013-03-14 09:14:00,50.5,49.1,30.11,NW,315,3.0,5.0,95,0.00,,,0.00,meteohub,2013-03-14 16:14:00,
2013-03-14 09:19:00,50.7,49.1,30.11,West,270,4.0,5.0,94,0.00,,,0.00,meteohub,2013-03-14 16:19:00,
2013-03-14 09:24:00,50.9,49.3,30.11,West,270,4.0,4.0,94,0.00,,,0.00,meteohub,2013-03-14 16:24:00,
2013-03-14 09:29:00,51.1,49.5,30.11,West,270,3.0,4.0,94,0.00,,,0.00,meteohub,2013-03-14 16:29:00,
2013-03-14 09:34:00,51.4,49.8,30.10,West,270,2.0,4.0,94,0.00,,,0.00,meteohub,2013-03-14 16:34:00,
2013-03-14 09:39:00,52.0,50.0,30.11,West,270,3.0,4.0,93,0.00,,,0.00,meteohub,2013-03-14 16:39:00,
2013-03-14 09:44:00,52.7,50.2,30.11,West,270,2.0,4.0,91,0.00,,,0.00,meteohub,2013-03-14 16:44:00,
2013-03-14 09:49:00,53.2,50.0,30.11,NW,315,3.0,3.0,89,0.00,,,0.00,meteohub,2013-03-14 16:49:00,
2013-03-14 09:54:00,54.0,49.3,30.11,North,0,4.0,4.0,84,0.00,,,0.00,meteohub,2013-03-14 16:54:00,
2013-03-14 09:59:00,54.5,49.8,30.10,NW,315,2.0,5.0,84,0.00,,,0.00,meteohub,2013-03-14 16:59:00,
2013-03-14 10:05:00,54.5,49.5,30.11,North,0,7.0,7.0,83,0.00,,,0.00,meteohub,2013-03-14 17:05:00,
2013-03-14 10:10:00,54.1,49.5,30.10,North,0,7.0,7.0,84,0.00,,,0.00,meteohub,2013-03-14 17:10:00,
2013-03-14 10:15:00,54.0,49.6,30.10,North,0,7.0,8.0,85,0.00,,,0.00,meteohub,2013-03-14 17:15:00,
2013-03-14 10:20:00,54.1,49.8,30.10,NW,315,7.0,9.0,85,0.00,,,0.00,meteohub,2013-03-14 17:20:00,
2013-03-14 10:25:00,54.5,50.0,30.11,NW,315,4.0,9.0,85,0.00,,,0.00,meteohub,2013-03-14 17:25:00,
2013-03-14 10:30:00,54.9,50.7,30.11,NW,315,2.0,9.0,86,0.00,,,0.00,meteohub,2013-03-14 17:30:00,
2013-03-14 10:35:00,55.0,50.9,30.10,North,0,2.0,8.0,86,0.00,,,0.00,meteohub,2013-03-14 17:35:00,
2013-03-14 10:40:00,55.0,50.4,30.10,East,90,4.0,7.0,84,0.00,,,0.00,meteohub,2013-03-14 17:40:00,
2013-03-14 10:45:00,54.7,50.0,30.10,East,90,5.0,7.0,84,0.00,,,0.00,meteohub,2013-03-14 17:45:00,
2013-03-14 10:50:00,57.9,53.1,30.10,East,90,4.0,7.0,84,0.00,,,0.00,meteohub,2013-03-14 17:50:00,
2013-03-14 10:55:00,55.2,50.2,30.10,NE,45,7.0,7.0,83,0.00,,,0.00,meteohub,2013-03-14 17:55:00,
2013-03-14 11:00:00,55.2,49.5,30.10,North,0,8.0,8.0,81,0.00,,,0.00,meteohub,2013-03-14 18:00:00,
2013-03-14 11:05:00,55.2,49.5,30.09,North,0,10.0,10.0,81,0.00,,,0.00,meteohub,2013-03-14 18:05:00,
2013-03-14 11:10:00,55.2,49.8,30.10,North,0,8.0,8.0,82,0.00,,,0.00,meteohub,2013-03-14 18:10:00,
2013-03-14 11:15:00,55.8,50.0,30.09,North,0,7.0,10.0,81,0.00,,,0.00,meteohub,2013-03-14 18:15:00,
2013-03-14 11:20:00,56.7,50.5,30.10,North,0,4.0,10.0,80,0.00,,,0.00,meteohub,2013-03-14 18:20:00,
2013-03-14 11:25:00,57.0,50.2,30.10,East,90,8.0,9.0,78,0.00,,,0.00,meteohub,2013-03-14 18:25:00,
2013-03-14 11:30:00,56.3,50.2,30.11,East,90,8.0,11.0,80,0.00,,,0.00,meteohub,2013-03-14 18:30:00,
2013-03-14 11:35:00,56.5,50.0,30.10,ENE,68,8.0,11.0,79,0.00,,,0.00,meteohub,2013-03-14 18:35:00,
2013-03-14 11:40:00,56.3,49.5,30.10,North,0,8.0,11.0,78,0.00,,,0.00,meteohub,2013-03-14 18:40:00,
2013-03-14 11:45:00,55.6,48.6,30.11,NE,45,11.0,11.0,77,0.00,,,0.00,meteohub,2013-03-14 18:45:00,
2013-03-14 11:50:00,55.4,48.9,30.10,North,0,8.0,11.0,79,0.00,,,0.00,meteohub,2013-03-14 18:50:00,
2013-03-14 11:55:00,55.4,48.4,30.10,North,0,6.0,11.0,77,0.00,,,0.00,meteohub,2013-03-14 18:55:00,
2013-03-14 12:00:00,55.4,48.7,30.09,North,0,7.0,11.0,78,0.00,,,0.00,meteohub,2013-03-14 19:00:00,
2013-03-14 12:05:00,55.4,48.7,30.09,North,0,7.0,8.0,78,0.00,,,0.00,meteohub,2013-03-14 19:05:00,
2013-03-14 12:10:00,55.0,48.9,30.10,NE,45,7.0,8.0,80,0.00,,,0.00,meteohub,2013-03-14 19:10:00,
2013-03-14 12:15:00,55.4,49.3,30.10,North,0,6.0,8.0,80,0.00,,,0.00,meteohub,2013-03-14 19:15:00,
2013-03-14 12:20:00,55.9,49.5,30.11,East,90,11.0,11.0,79,0.00,,,0.00,meteohub,2013-03-14 19:20:00,
2013-03-14 12:25:00,55.9,50.5,30.11,NE,45,20.0,20.0,82,0.00,,,0.00,meteohub,2013-03-14 19:25:00,
2013-03-14 12:30:00,55.6,50.2,30.12,NE,45,18.0,20.0,82,0.00,,,0.00,meteohub,2013-03-14 19:30:00,
2013-03-14 12:35:00,55.6,49.8,30.12,ENE,68,17.0,20.0,81,0.00,,,0.00,meteohub,2013-03-14 19:35:00,
2013-03-14 12:40:00,55.6,49.8,30.11,NE,45,18.0,20.0,81,0.00,,,0.00,meteohub,2013-03-14 19:40:00,
2013-03-14 12:45:00,55.6,50.2,30.12,North,0,13.0,21.0,82,0.00,,,0.00,meteohub,2013-03-14 19:45:00,
2013-03-14 12:50:00,55.2,49.5,30.12,NE,45,15.0,21.0,81,0.00,,,0.00,meteohub,2013-03-14 19:50:00,
2013-03-14 12:55:00,55.9,50.2,30.12,NE,45,13.0,21.0,81,0.00,,,0.00,meteohub,2013-03-14 19:55:00,
2013-03-14 13:00:00,57.4,50.5,30.11,North,0,18.0,18.0,78,0.00,,,0.00,meteohub,2013-03-14 20:00:00,
2013-03-14 13:05:00,56.8,48.9,30.12,North,0,21.0,22.0,75,0.00,,,0.00,meteohub,2013-03-14 20:05:00,
2013-03-14 13:10:00,57.2,48.9,30.12,NE,45,15.0,22.0,74,0.00,,,0.00,meteohub,2013-03-14 20:10:00,
2013-03-14 13:15:00,58.3,48.9,30.12,NNE,23,16.0,22.0,71,0.00,,,0.00,meteohub,2013-03-14 20:15:00,
2013-03-14 13:20:00,57.7,48.7,30.13,NE,45,19.0,21.0,72,0.00,,,0.00,meteohub,2013-03-14 20:20:00,
2013-03-14 13:25:00,57.4,48.7,30.12,North,0,13.0,19.0,73,0.00,,,0.00,meteohub,2013-03-14 20:25:00,
2013-03-14 13:30:00,57.0,48.0,30.12,North,0,12.0,19.0,72,0.00,,,0.00,meteohub,2013-03-14 20:30:00,
2013-03-14 13:35:00,57.0,48.7,30.12,North,0,10.0,19.0,74,0.00,,,0.00,meteohub,2013-03-14 20:35:00,
2013-03-14 13:40:00,57.2,48.9,30.13,NE,45,11.0,15.0,74,0.00,,,0.00,meteohub,2013-03-14 20:40:00,
2013-03-14 13:45:00,57.2,48.9,30.13,NE,45,9.0,15.0,74,0.00,,,0.00,meteohub,2013-03-14 20:45:00,
2013-03-14 13:50:00,57.7,48.0,30.14,NE,45,12.0,15.0,70,0.00,,,0.00,meteohub,2013-03-14 20:50:00,
2013-03-14 13:55:00,57.4,48.4,30.13,East,90,13.0,15.0,72,0.00,,,0.00,meteohub,2013-03-14 20:55:00,
2013-03-14 14:00:00,57.7,47.3,30.13,NE,45,11.0,14.0,68,0.00,,,0.00,meteohub,2013-03-14 21:00:00,
2013-03-14 14:05:00,57.9,45.9,30.13,NE,45,14.0,15.0,64,0.00,,,0.00,meteohub,2013-03-14 21:05:00,
2013-03-14 14:10:00,58.1,46.0,30.13,NE,45,14.0,16.0,64,0.00,,,0.00,meteohub,2013-03-14 21:10:00,
2013-03-14 14:16:00,58.6,45.3,30.13,NE,45,11.0,16.0,61,0.00,,,0.00,meteohub,2013-03-14 21:16:00,
2013-03-14 14:21:00,58.6,45.7,30.14,NE,45,15.0,17.0,62,0.00,,,0.00,meteohub,2013-03-14 21:21:00,
2013-03-14 14:26:00,58.3,44.4,30.14,NE,45,23.0,23.0,60,0.00,,,0.00,meteohub,2013-03-14 21:26:00,
2013-03-14 14:31:00,58.6,45.3,30.14,NE,45,17.0,23.0,61,0.00,,,0.00,meteohub,2013-03-14 21:31:00,
2013-03-14 14:36:00,59.0,46.4,30.13,NE,45,13.0,23.0,63,0.00,,,0.00,meteohub,2013-03-14 21:36:00,
2013-03-14 14:41:00,58.8,46.2,30.13,NE,45,11.0,23.0,63,0.00,,,0.00,meteohub,2013-03-14 21:41:00,
2013-03-14 14:46:00,59.0,46.8,30.13,East,90,15.0,17.0,64,0.00,,,0.00,meteohub,2013-03-14 21:46:00,
2013-03-14 14:51:00,59.4,46.8,30.13,North,0,11.0,16.0,63,0.00,,,0.00,meteohub,2013-03-14 21:51:00,
2013-03-14 14:56:00,59.2,46.9,30.13,NE,45,14.0,16.0,64,0.00,,,0.00,meteohub,2013-03-14 21:56:00,
2013-03-14 15:01:00,58.6,46.6,30.13,NE,45,15.0,20.0,64,0.00,,,0.00,meteohub,2013-03-14 22:01:00,
2013-03-14 15:06:00,57.9,44.1,30.13,North,0,17.0,21.0,60,0.00,,,0.00,meteohub,2013-03-14 22:06:00,
2013-03-14 15:11:00,57.9,45.0,30.12,North,0,13.0,21.0,62,0.00,,,0.00,meteohub,2013-03-14 22:11:00,
2013-03-14 15:16:00,58.1,44.8,30.13,North,0,12.0,21.0,61,0.00,,,0.00,meteohub,2013-03-14 22:16:00,
2013-03-14 15:21:00,57.9,44.1,30.12,North,0,13.0,19.0,60,0.00,,,0.00,meteohub,2013-03-14 22:21:00,
2013-03-14 15:26:00,57.4,43.2,30.13,North,0,15.0,17.0,59,0.00,,,0.00,meteohub,2013-03-14 22:26:00,
2013-03-14 15:31:00,57.4,44.4,30.12,NE,45,13.0,17.0,62,0.00,,,0.00,meteohub,2013-03-14 22:31:00,
2013-03-14 15:37:00,57.4,43.2,30.12,NE,45,15.0,16.0,59,0.00,,,0.00,meteohub,2013-03-14 22:37:00,
2013-03-14 15:42:00,57.6,44.6,30.12,SW,225,8.0,21.0,62,0.00,,,0.00,meteohub,2013-03-14 22:42:00,
2013-03-14 15:47:00,57.6,44.2,30.12,North,0,15.0,21.0,61,0.00,,,0.00,meteohub,2013-03-14 22:47:00,
2013-03-14 15:52:00,57.4,44.4,30.12,North,0,14.0,21.0,62,0.00,,,0.00,meteohub,2013-03-14 22:52:00,
2013-03-14 15:57:00,58.1,45.1,30.12,North,0,11.0,16.0,62,0.00,,,0.00,meteohub,2013-03-14 22:57:00,
2013-03-14 16:02:00,59.0,46.0,30.12,North,0,9.0,16.0,62,0.00,,,0.00,meteohub,2013-03-14 23:02:00,
2013-03-14 16:07:00,59.0,45.5,30.13,North,0,13.0,16.0,61,0.00,,,0.00,meteohub,2013-03-14 23:07:00,
2013-03-14 16:12:00,59.2,44.8,30.14,North,0,17.0,17.0,59,0.00,,,0.00,meteohub,2013-03-14 23:12:00,
2013-03-14 16:17:00,59.2,44.8,30.14,North,0,16.0,21.0,59,0.00,,,0.00,meteohub,2013-03-14 23:17:00,
2013-03-14 16:22:00,59.2,45.3,30.14,North,0,17.0,21.0,60,0.00,,,0.00,meteohub,2013-03-14 23:22:00,
2013-03-14 16:27:00,58.5,44.6,30.14,NE,45,13.0,21.0,60,0.00,,,0.00,meteohub,2013-03-14 23:27:00,
2013-03-14 16:32:00,58.3,45.7,30.14,North,0,11.0,26.0,63,0.00,,,0.00,meteohub,2013-03-14 23:32:00,
2013-03-14 16:37:00,58.3,45.7,30.14,NE,45,13.0,26.0,63,0.00,,,0.00,meteohub,2013-03-14 23:37:00,
2013-03-14 16:42:00,58.1,45.5,30.14,NE,45,18.0,20.0,63,0.00,,,0.00,meteohub,2013-03-14 23:42:00,
2013-03-14 16:47:00,57.9,44.1,30.14,North,0,15.0,20.0,60,0.00,,,0.00,meteohub,2013-03-14 23:47:00,
2013-03-14 16:52:00,57.9,45.3,30.14,North,0,10.0,20.0,63,0.00,,,0.00,meteohub,2013-03-14 23:52:00,
2013-03-14 16:57:00,57.6,45.1,30.15,North,0,15.0,18.0,63,0.00,,,0.00,meteohub,2013-03-14 23:57:00,
2013-03-14 17:02:00,57.4,44.4,30.15,NE,45,17.0,22.0,62,0.00,,,0.00,meteohub,2013-03-15 00:02:00,
2013-03-14 17:07:00,57.4,44.4,30.15,NE,45,14.0,22.0,62,0.00,,,0.00,meteohub,2013-03-15 00:07:00,
2013-03-14 17:12:00,57.4,45.0,30.14,North,0,13.0,22.0,63,0.00,,,0.00,meteohub,2013-03-15 00:12:00,
2013-03-14 17:17:00,57.4,44.4,30.15,North,0,17.0,20.0,62,0.00,,,0.00,meteohub,2013-03-15 00:17:00,
2013-03-14 17:22:00,57.2,44.8,30.15,North,0,14.0,17.0,63,0.00,,,0.00,meteohub,2013-03-15 00:22:00,
2013-03-14 17:28:00,57.2,45.1,30.15,NE,45,12.0,17.0,64,0.00,,,0.00,meteohub,2013-03-15 00:28:00,
2013-03-14 17:33:00,57.0,44.6,30.15,North,0,11.0,17.0,63,0.00,,,0.00,meteohub,2013-03-15 00:33:00,
2013-03-14 17:38:00,57.0,45.0,30.15,NE,45,11.0,15.0,64,0.00,,,0.00,meteohub,2013-03-15 00:38:00,
2013-03-14 17:43:00,56.5,46.8,30.16,East,90,9.0,12.0,70,0.00,,,0.00,meteohub,2013-03-15 00:43:00,
2013-03-14 17:48:00,55.9,47.5,30.16,East,90,7.0,12.0,73,0.00,,,0.00,meteohub,2013-03-15 00:48:00,
2013-03-14 17:53:00,55.6,47.5,30.16,ENE,68,4.0,12.0,74,0.00,,,0.00,meteohub,2013-03-15 00:53:00,
2013-03-14 17:58:00,55.6,47.1,30.16,East,90,2.0,10.0,73,0.00,,,0.00,meteohub,2013-03-15 00:58:00,
2013-03-14 18:03:00,55.8,47.3,30.15,East,90,1.0,9.0,73,0.00,,,0.00,meteohub,2013-03-15 01:03:00,
2013-03-14 18:08:00,55.9,47.1,30.15,North,0,1.0,5.0,72,0.00,,,0.00,meteohub,2013-03-15 01:08:00,
2013-03-14 18:13:00,55.9,47.1,30.15,SE,135,1.0,3.0,72,0.00,,,0.00,meteohub,2013-03-15 01:13:00,
2013-03-14 18:18:00,55.9,46.8,30.16,East,90,2.0,2.0,71,0.00,,,0.00,meteohub,2013-03-15 01:18:00,
2013-03-14 18:23:00,55.9,46.8,30.15,SE,135,0.0,2.0,71,0.00,,,0.00,meteohub,2013-03-15 01:23:00,
2013-03-14 18:28:00,55.9,47.5,30.15,West,270,3.0,3.0,73,0.00,,,0.00,meteohub,2013-03-15 01:28:00,
2013-03-14 18:33:00,55.8,47.7,30.15,West,270,4.0,4.0,74,0.00,,,0.00,meteohub,2013-03-15 01:33:00,
2013-03-14 18:38:00,55.8,48.0,30.15,West,270,3.0,4.0,75,0.00,,,0.00,meteohub,2013-03-15 01:38:00,
2013-03-14 18:43:00,55.8,48.0,30.15,West,270,4.0,4.0,75,0.00,,,0.00,meteohub,2013-03-15 01:43:00,
2013-03-14 18:48:00,55.6,47.8,30.15,NW,315,5.0,5.0,75,0.00,,,0.00,meteohub,2013-03-15 01:48:00,
2013-03-14 18:53:00,55.4,47.7,30.15,NW,315,4.0,5.0,75,0.00,,,0.00,meteohub,2013-03-15 01:53:00,
2013-03-14 18:58:00,55.4,47.3,30.16,NW,315,3.0,5.0,74,0.00,,,0.00,meteohub,2013-03-15 01:58:00,
2013-03-14 19:03:00,55.4,47.7,30.16,NW,315,2.0,5.0,75,0.00,,,0.00,meteohub,2013-03-15 02:03:00,
2013-03-14 19:08:00,55.2,47.5,30.16,West,270,2.0,5.0,75,0.00,,,0.00,meteohub,2013-03-15 02:08:00,
2013-03-14 19:13:00,55.2,47.8,30.16,NW,315,2.0,4.0,76,0.00,,,0.00,meteohub,2013-03-15 02:13:00,
2013-03-14 19:18:00,55.0,48.0,30.16,NW,315,3.0,4.0,77,0.00,,,0.00,meteohub,2013-03-15 02:18:00,
2013-03-14 19:23:00,55.0,48.0,30.16,NW,315,6.0,6.0,77,0.00,,,0.00,meteohub,2013-03-15 02:23:00,
2013-03-14 19:28:00,54.7,48.4,30.17,NW,315,5.0,6.0,79,0.00,,,0.00,meteohub,2013-03-15 02:28:00,
2013-03-14 19:33:00,54.7,48.6,30.17,NW,315,3.0,6.0,80,0.00,,,0.00,meteohub,2013-03-15 02:33:00,
2013-03-14 19:38:00,54.5,48.7,30.17,NW,315,4.0,6.0,81,0.00,,,0.00,meteohub,2013-03-15 02:38:00,
2013-03-14 19:43:00,54.5,48.7,30.16,NW,315,5.0,6.0,81,0.00,,,0.00,meteohub,2013-03-15 02:43:00,
2013-03-14 19:48:00,54.5,48.4,30.17,NW,315,5.0,6.0,80,0.00,,,0.00,meteohub,2013-03-15 02:48:00,
2013-03-14 19:53:00,54.5,48.4,30.17,NW,315,5.0,6.0,80,0.00,,,0.00,meteohub,2013-03-15 02:53:00,
2013-03-14 19:58:00,54.5,48.4,30.17,NW,315,4.0,6.0,80,0.00,,,0.00,meteohub,2013-03-15 02:58:00,
2013-03-14 20:03:00,54.5,48.2,30.17,NW,315,5.0,6.0,79,0.00,,,0.00,meteohub,2013-03-15 03:03:00,
2013-03-14 20:08:00,54.5,48.4,30.17,NW,315,6.0,6.0,80,0.00,,,0.00,meteohub,2013-03-15 03:08:00,
2013-03-14 20:13:00,54.5,48.4,30.17,NW,315,4.0,6.0,80,0.00,,,0.00,meteohub,2013-03-15 03:13:00,
2013-03-14 20:18:00,54.5,48.2,30.17,NW,315,4.0,6.0,79,0.00,,,0.00,meteohub,2013-03-15 03:18:00,
2013-03-14 20:23:00,54.5,48.4,30.17,NW,315,4.0,6.0,80,0.00,,,0.00,meteohub,2013-03-15 03:23:00,
2013-03-14 20:28:00,54.5,48.4,30.17,NW,315,4.0,5.0,80,0.00,,,0.00,meteohub,2013-03-15 03:28:00,
2013-03-14 20:33:00,54.5,48.4,30.17,NW,315,4.0,5.0,80,0.00,,,0.00,meteohub,2013-03-15 03:33:00,
2013-03-14 20:38:00,54.5,48.4,30.17,NW,315,3.0,5.0,80,0.00,,,0.00,meteohub,2013-03-15 03:38:00,
2013-03-14 20:43:00,54.5,48.4,30.17,NW,315,4.0,5.0,80,0.00,,,0.00,meteohub,2013-03-15 03:43:00,
2013-03-14 20:48:00,54.5,48.4,30.17,NW,315,4.0,5.0,80,0.00,,,0.00,meteohub,2013-03-15 03:48:00,
2013-03-14 20:53:00,54.7,48.4,30.17,NW,315,4.0,5.0,79,0.00,,,0.00,meteohub,2013-03-15 03:53:00,
2013-03-14 20:59:00,54.7,48.4,30.18,NNW,338,6.0,6.0,79,0.00,,,0.00,meteohub,2013-03-15 03:59:00,
2013-03-14 21:00:00,54.9,48.2,30.17,North,0,5.0,5.0,78,0.00,,,0.00,meteohub,2013-03-15 04:00:00,
2013-03-14 21:05:00,54.9,48.2,30.18,NW,315,4.0,6.0,78,0.00,,,0.00,meteohub,2013-03-15 04:05:00,
2013-03-14 21:10:00,54.9,48.2,30.18,NW,315,5.0,6.0,78,0.00,,,0.00,meteohub,2013-03-15 04:10:00,
2013-03-14 21:15:00,55.0,48.4,30.18,WNW,293,8.0,8.0,78,0.00,,,0.00,meteohub,2013-03-15 04:15:00,
2013-03-14 21:20:00,55.4,48.0,30.18,NW,315,11.0,11.0,76,0.00,,,0.00,meteohub,2013-03-15 04:20:00,
2013-03-14 21:25:00,55.4,48.0,30.18,North,0,11.0,12.0,76,0.00,,,0.00,meteohub,2013-03-15 04:25:00,
2013-03-14 21:30:00,55.8,48.0,30.18,North,0,17.0,17.0,75,0.00,,,0.00,meteohub,2013-03-15 04:30:00,
2013-03-14 21:35:00,55.6,48.2,30.18,NNW,338,13.0,17.0,76,0.00,,,0.00,meteohub,2013-03-15 04:35:00,
2013-03-14 21:40:00,55.6,48.2,30.18,North,0,10.0,17.0,76,0.00,,,0.00,meteohub,2013-03-15 04:40:00,
2013-03-14 21:45:00,55.6,48.2,30.19,North,0,10.0,17.0,76,0.00,,,0.00,meteohub,2013-03-15 04:45:00,
2013-03-14 21:50:00,55.6,47.8,30.20,North,0,13.0,13.0,75,0.00,,,0.00,meteohub,2013-03-15 04:50:00,
2013-03-14 21:55:00,55.6,47.8,30.19,North,0,11.0,13.0,75,0.00,,,0.00,meteohub,2013-03-15 04:55:00,
2013-03-14 22:00:00,55.6,48.2,30.20,North,0,9.0,13.0,76,0.00,,,0.00,meteohub,2013-03-15 05:00:00,
2013-03-14 22:05:00,55.6,47.8,30.20,North,0,8.0,13.0,75,0.00,,,0.00,meteohub,2013-03-15 05:05:00,
2013-03-14 22:10:00,55.6,48.2,30.20,North,0,7.0,12.0,76,0.00,,,0.00,meteohub,2013-03-15 05:10:00,
2013-03-14 22:15:00,55.6,48.2,30.21,NW,315,4.0,11.0,76,0.00,,,0.00,meteohub,2013-03-15 05:15:00,
2013-03-14 22:20:00,55.6,48.2,30.20,NW,315,4.0,8.0,76,0.00,,,0.00,meteohub,2013-03-15 05:20:00,
2013-03-14 22:25:00,55.4,48.7,30.20,NW,315,4.0,8.0,78,0.00,,,0.00,meteohub,2013-03-15 05:25:00,
2013-03-14 22:31:00,54.7,49.3,30.21,NW,315,3.0,5.0,82,0.00,,,0.00,meteohub,2013-03-15 05:31:00,
2013-03-14 22:36:00,54.1,49.5,30.21,West,270,3.0,5.0,84,0.00,,,0.00,meteohub,2013-03-15 05:36:00,
2013-03-14 22:41:00,54.0,49.3,30.21,West,270,5.0,5.0,84,0.00,,,0.00,meteohub,2013-03-15 05:41:00,
2013-03-14 22:46:00,54.0,49.3,30.20,West,270,5.0,6.0,84,0.00,,,0.00,meteohub,2013-03-15 05:46:00,
2013-03-14 22:51:00,54.0,49.3,30.21,West,270,6.0,6.0,84,0.00,,,0.00,meteohub,2013-03-15 05:51:00,
2013-03-14 22:56:00,54.0,49.3,30.21,West,270,5.0,6.0,84,0.00,,,0.00,meteohub,2013-03-15 05:56:00,
2013-03-14 23:01:00,53.8,49.5,30.21,West,270,6.0,6.0,85,0.00,,,0.00,meteohub,2013-03-15 06:01:00,
2013-03-14 23:06:00,53.8,49.6,30.21,West,270,5.0,6.0,86,0.00,,,0.00,meteohub,2013-03-15 06:06:00,
2013-03-14 23:11:00,53.6,49.5,30.22,West,270,4.0,7.0,86,0.00,,,0.00,meteohub,2013-03-15 06:11:00,
2013-03-14 23:16:00,53.4,50.0,30.22,NW,315,6.0,7.0,88,0.00,,,0.00,meteohub,2013-03-15 06:16:00,
2013-03-14 23:21:00,53.4,50.0,30.21,West,270,6.0,7.0,88,0.00,,,0.00,meteohub,2013-03-15 06:21:00,
2013-03-14 23:27:00,53.2,50.0,30.22,NW,315,5.0,7.0,89,0.00,,,0.00,meteohub,2013-03-15 06:27:00,
2013-03-14 23:32:00,53.2,50.0,30.22,NW,315,2.0,7.0,89,0.00,,,0.00,meteohub,2013-03-15 06:32:00,
2013-03-14 23:37:00,53.4,50.2,30.22,NW,315,3.0,6.0,89,0.00,,,0.00,meteohub,2013-03-15 06:37:00,
2013-03-14 23:42:00,53.4,50.0,30.22,West,270,4.0,5.0,88,0.00,,,0.00,meteohub,2013-03-15 06:42:00,
2013-03-14 23:47:00,53.6,49.5,30.22,North,0,5.0,5.0,86,0.00,,,0.00,meteohub,2013-03-15 06:47:00,
2013-03-14 23:52:00,54.3,49.6,30.21,NW,315,5.0,7.0,84,0.00,,,0.00,meteohub,2013-03-15 06:52:00,
2013-03-14 23:57:00,54.5,49.1,30.21,NNW,338,9.0,11.0,82,0.00,,,0.00,meteohub,2013-03-15 06:57:00,